Racine, WI

11:13 PM CDT on August 16, 2017 (GMT -0500)
Batten

Weather History for KRAC - January, 2013

Change the Weather History Date:

Tuesday, January 8, 2013

  Actual Average Record
Temperature  
Mean Temperature 33 °F -  
Max Temperature 39 °F 24 °F 57 °F (1965)
Min Temperature 27 °F 8 °F -15 °F (1986)
Degree Days  
Heating Degree Days 32    
Moisture  
Dew Point 27 °F    
Average Humidity 76    
Maximum Humidity 85    
Minimum Humidity 65    
Precipitation  
Precipitation 0.00 in - - ()
Sea Level Pressure  
Sea Level Pressure 30.10 in    
Wind  
Wind Speed 9 mph (SSW)    
Max Wind Speed 17 mph    
Max Gust Speed 23 mph    
Visibility 7 miles    
Events      
Averages and records for this station are not official NWS values.
T = Trace of Precipitation, MM = Missing Value Source: NWS Daily Summary

Daily Weather History Graph

Daily Weather History Graph

Search for Another Location

Airport or City:

Trip Planner

Search our weather history database for the weather conditions in past years. The results will help you decide how hot, cold, wet, or windy it might be!

Date:

Astronomy

Jan. 08, 2013 Rise Set
Actual Time 7:21 AM CST 4:35 PM CST
Civil Twilight 6:49 AM CST 5:06 PM CST
Nautical Twilight 6:14 AM CST 5:42 PM CST
Astronomical Twilight 5:40 AM CST 6:16 PM CST
Moon 3:53 AM CST (1/8) 1:37 PM CST (1/8)
Length of Visible Light 10h 17m
Length of Day
9h 13m
Waning Crescent, 13% of the Moon is Illuminated
Jan 8
Waning Crescent
Jan 11
New
Jan 18
First Quarter
Jan 26
Full
Feb 3
Last Quarter

Hourly Weather History & Observations

Time (CST) Temp. Windchill Dew Point Humidity Pressure Visibility Wind Dir Wind Speed Gust Speed Precip Events Conditions
12:53 AM 30.9 °F 22.8 °F 26.1 °F 82% 30.11 in 6.0 mi SW 9.2 mph - N/A   Haze
1:53 AM 30.0 °F 22.4 °F 25.0 °F 82% 30.12 in 6.0 mi SW 8.1 mph - N/A   Haze
2:53 AM 30.0 °F 21.7 °F 25.0 °F 82% 30.11 in 6.0 mi SW 9.2 mph - N/A   Haze
3:53 AM 30.0 °F 22.4 °F 25.0 °F 82% 30.11 in 6.0 mi SW 8.1 mph - N/A   Haze
4:53 AM 28.9 °F 21.9 °F 24.1 °F 82% 30.12 in 6.0 mi SW 6.9 mph - N/A   Haze
5:53 AM 28.0 °F 20.8 °F 24.1 °F 85% 30.12 in 6.0 mi WSW 6.9 mph - N/A   Clear
6:53 AM 28.0 °F 21.7 °F 24.1 °F 85% 30.13 in 6.0 mi West 5.8 mph - N/A   Clear
7:53 AM 27.0 °F 23.0 °F 23.0 °F 85% 30.16 in 4.0 mi WSW 3.5 mph - N/A   Clear
8:53 AM 30.0 °F 23.2 °F 25.0 °F 82% 30.17 in 4.0 mi SW 6.9 mph - N/A   Haze
9:53 AM 33.1 °F 26.9 °F 26.1 °F 75% 30.16 in 6.0 mi SSW 6.9 mph - N/A   Haze
10:53 AM 36.0 °F 30.3 °F 27.0 °F 70% 30.15 in 7.0 mi South 6.9 mph - N/A   Clear
11:53 AM 39.0 °F 34.0 °F 28.0 °F 65% 30.12 in 7.0 mi SSW 6.9 mph - N/A   Clear
12:53 PM 37.9 °F 32.1 °F 28.0 °F 68% 30.11 in 6.0 mi SSE 8.1 mph - N/A   Haze
1:53 PM 37.0 °F 29.8 °F 28.0 °F 70% 30.10 in 7.0 mi South 10.4 mph - N/A   Clear
2:53 PM 37.9 °F 31.5 °F 28.9 °F 70% 30.09 in 7.0 mi South 9.2 mph - N/A   Clear
3:53 PM 37.0 °F 28.9 °F 30.9 °F 79% 30.10 in 5.0 mi South 12.7 mph 19.6 mph N/A   Haze
4:53 PM 37.0 °F 29.3 °F 30.9 °F 79% 30.08 in 6.0 mi South 11.5 mph - N/A   Haze
5:53 PM 37.0 °F 29.3 °F 30.9 °F 79% 30.08 in 7.0 mi South 11.5 mph - N/A   Clear
6:53 PM 37.0 °F 28.5 °F 30.9 °F 79% 30.06 in 7.0 mi South 13.8 mph 20.7 mph N/A   Clear
7:53 PM 37.9 °F 30.0 °F 28.9 °F 70% 30.05 in 9.0 mi South 12.7 mph - N/A   Scattered Clouds
8:53 PM 37.9 °F 29.6 °F 28.9 °F 70% 30.04 in 10.0 mi SSW 13.8 mph 20.7 mph N/A   Overcast
9:53 PM 37.9 °F 28.5 °F 28.0 °F 68% 30.04 in 10.0 mi SSW 17.3 mph 23.0 mph N/A   Partly Cloudy
11:53 PM 37.0 °F 28.5 °F 28.0 °F 70% 29.99 in 10.0 mi SSW 13.8 mph - N/A   Partly Cloudy